CAPE
0 0 0 0 0 0 0 0 0 0 0 0 0 0 0 0 0 0 0 0 0 0 0 0 0 0 0 185 225 61 31 0 0 0 0 0 0 0 0 0 0 0 0 0
0 0 0 0 0 0 0 0 0 0 0 0 0 0 0 0 0 0 0 0 0 0 0 0 0 0 0 2 1 0 0 0 0 0 0 0 0 0 0 0 0 0 0 0
0 0 0 0 0 0 0 0 0 0 0 0 0 0 0 0 0 0 0 0 0 0 0 0 0 0 0 0 0 0 0 0 0 0 0 0 0 0 0 0 0 0 0 0
0 0 0 0 0 0 0 0 0 0 0 0 0 0 0 0 0 0 0 0 0 0 0 0 0 0 0 0 0 0 0 0 0 0 0 0 0 0 0 0 0 0 0 0
0 0 0 0 0 0 0 0 0 0 0 0 0 0 0 0 0 0 0 0 0 0 0 0 0 0 0 0 0 0 0 0 0 0 0 0 0 0 0 0 0 0 0 0
0 0 0 0 0 0 0 0 0 0 0 0 0 0 0 0 0 0 0 0 0 0 0 0 0 0 0 0 0 0 0 0 0 0 0 0 0 0 0 0 0 0 0 0
0 0 0 0 0 0 0 0 0 1 0 0 0 0 0 0 0 0 0 0 0 0 0 0 0 0 0 0 0 0 0 0 0 0 0 0 0 0 0 0 0 0 0 0
0 0 0 0 0 0 0 0 0 0 0 0 0 0 0 0 0 0 0 0 0 0 0 0 0 0 0 0 0 0 0 0 0 0 0 0 0 0 0 0 0 0 0 0
0 0 0 0 0 0 0 0 0 0 0 0 0 0 0 0 0 0 0 0 0 0 0 0 0 0 0 0 0 0 0 0 0 0 0 0 0 0 0 0 0 0 0 0
0 0 0 0 0 0 0 0 0 0 0 0 0 0 2 0 3 0 0 0 0 0 0 0 0 0 0 1 0 0 0 0 0 0 0 0 0 0 0 0 0 0 5 21
0 0 0 0 0 0 0 0 0 0 0 0 0 0 0 0 0 0 0 0 0 0 2 9 1 0 0 0 0 0 2 2 0 0 0 0 0 0 0 0 1 8 17 9
0 0 0 0 0 0 0 0 0 0 0 3 2 0 0 0 0 0 5 2 0 1 13 15 11 2 5 2 0 0 0 0 0 0 0 0 0 1 4 18 18 15 33 39
0 0 0 0 0 0 0 0 0 0 0 1 21 0 0 0 5 4 1 0 0 1 6 3 15 8 1 0 0 0 0 0 0 0 0 1 8 17 18 24 31 45 39 35
0 0 0 0 0 0 0 0 0 0 9 2 0 3 0 7 5 1 0 2 17 17 17 26 18 8 0 0 0 0 0 0 0 0 0 5 16 27 29 24 31 30 26 26
0 0 0 0 0 0 0 0 0 0 0 16 0 3 12 1 0 0 0 19 18 14 3 4 5 1 0 0 0 1 0 0 0 1 1 1 2 8 22 23 13 7 4 1
0 0 0 0 0 0 0 0 0 0 0 1 9 4 0 0 0 3 13 11 15 9 2 1 0 0 0 0 11 0 0 0 0 6 0 1 6 16 9 2 2 1 0 0
0 0 0 0 0 0 0 0 0 0 0 0 1 3 0 1 7 20 18 4 9 9 3 0 0 0 0 5 14 0 0 0 3 2 3 15 25 9 0 0 0 0 0 0
1 0 1 6 0 3 0 0 0 0 0 0 0 0 0 13 17 29 0 5 3 0 0 0 0 0 3 29 10 0 0 0 2 5 11 22 10 0 0 0 0 0 0 1
0 1 2 2 4 0 0 0 0 0 0 0 0 4 10 10 10 6 0 0 4 0 0 0 0 0 4 66 0 0 0 1 3 15 13 9 2 0 0 1 3 5 3 6
0 0 28 14 27 18 0 0 0 0 7 0 8 10 7 23 53 3 5 1 0 0 1 0 0 0 61 62 1 12 14 15 3 3 21 4 0 0 0 1 5 9 10 14
0 3 6 9 29 14 1 0 0 23 48 4 0 1 17 20 13 8 3 1 2 1 0 0 0 0 14 38 35 35 21 1 0 6 14 12 0 0 0 1 7 18 21 21
4 18 26 7 2 1 0 0 11 37 0 0 3 9 19 17 11 3 0 0 0 0 0 0 0 0 0 7 44 42 5 6 7 27 36 12 0 0 0 6 18 27 28 14
1 0 15 10 23 16 22 3 0 0 0 16 7 10 10 8 0 0 0 0 0 0 0 0 0 0 0 14 86 45 7 9 11 9 15 10 0 0 5 23 33 26 15 7
0 1 12 32 1 22 40 31 4 1 0 0 0 0 0 0 0 0 0 0 0 0 0 0 0 0 0 16 86 34 10 4 2 8 13 11 2 3 7 22 18 13 10 11
4 21 8 19 19 27 7 10 3 2 0 0 0 0 0 0 0 0 0 0 0 0 0 0 0 1 1 10 40 7 1 1 2 4 4 0 0 8 15 15 6 4 8 5
5 12 28 10 16 39 7 0 10 4 0 0 0 0 0 0 0 0 0 0 0 0 0 0 3 6 5 10 18 4 0 0 0 0 0 1 2 20 16 10 9 0 0 0
CIN
0 0 0 0 0 0 0 0 0 0 0 0 0 0 0 0 0 0 0 0 0 0 0 0 0 0 0 -70 -36 -19 -56 0 0 0 0 0 0 0 0 0 0 0 0 0
0 0 0 0 0 0 0 0 0 0 0 0 0 0 0 0 0 0 0 0 0 0 0 0 0 0 0 -108 -30 0 0 0 0 0 0 0 0 0 0 0 0 0 0 0
0 0 0 0 0 0 0 0 0 0 0 0 0 0 0 0 0 0 0 0 0 0 0 0 0 0 0 0 0 0 0 0 0 0 0 0 0 0 0 0 0 0 0 0
0 0 0 0 0 0 0 0 0 0 0 0 0 0 0 0 0 0 0 0 0 0 0 0 0 0 0 0 0 0 0 0 0 0 0 0 0 0 0 0 0 0 0 0
0 0 0 0 0 0 0 0 0 0 0 0 0 0 0 0 0 0 0 0 0 0 0 0 0 0 0 0 0 0 0 0 0 0 0 0 0 0 0 0 0 0 0 0
0 0 0 0 0 0 0 0 0 0 0 0 0 0 0 0 0 0 0 0 0 0 0 0 0 0 0 0 0 0 0 0 0 0 0 0 0 0 0 0 0 0 0 0
0 0 0 0 0 0 0 0 0 -42 0 0 0 0 0 0 0 0 0 0 0 0 0 0 0 0 0 0 0 0 0 0 0 0 0 0 0 0 0 0 0 0 0 0
0 0 0 0 0 0 0 0 0 0 0 0 0 0 0 0 0 0 0 0 0 0 0 0 0 0 0 0 0 0 0 0 0 0 0 0 0 0 0 0 0 0 0 0
0 0 0 0 0 0 0 0 0 0 0 0 0 0 0 0 0 0 0 0 0 0 0 0 0 0 0 0 0 0 0 0 0 0 0 0 0 0 0 0 0 0 0 0
0 0 0 0 0 0 0 0 0 0 0 0 0 0 0 -1 -3 0 0 0 0 0 0 0 0 -1 0 -52 0 0 0 0 0 0 0 0 0 0 0 0 0 0 0 0
0 0 0 0 0 0 0 0 0 0 0 0 0 0 0 0 0 0 0 0 0 0 0 0 0 0 0 0 0 0 -7 -12 0 0 0 0 0 0 0 0 0 0 0 0
0 0 0 0 0 0 0 0 0 0 0 0 0 0 0 0 0 0 0 0 0 0 -2 -1 0 -15 -16 -6 0 0 0 0 0 0 0 0 0 0 0 0 0 0 0 0
0 0 0 0 0 0 0 0 0 0 0 0 0 0 0 0 0 0 0 0 0 -2 -4 -5 0 -4 0 0 0 0 0 0 0 0 0 0 0 0 0 0 0 0 0 0
0 0 0 0 0 0 0 0 0 0 0 0 0 0 0 0 0 0 0 0 0 0 0 0 -1 -16 0 0 0 0 0 0 0 0 0 0 0 0 0 0 0 0 0 0
0 0 0 0 0 0 0 0 0 0 0 0 0 0 0 0 0 0 0 0 0 0 -9 0 0 0 0 0 0 0 0 0 0 0 0 0 0 0 0 0 0 0 0 0
0 0 0 0 0 0 0 0 0 0 0 0 0 0 0 0 0 0 0 0 0 -5 0 0 0 0 0 0 0 0 0 0 0 0 0 0 0 0 0 0 0 0 0 0
0 0 0 0 0 0 0 0 0 0 0 0 0 -1 0 0 0 0 0 0 0 0 0 0 0 0 0 0 0 0 0 0 0 0 0 0 0 0 0 0 0 0 0 0
0 0 0 0 0 0 0 0 0 0 0 0 0 0 0 -1 0 0 0 0 0 0 0 0 0 0 0 0 0 0 0 0 0 0 0 0 0 0 0 0 0 0 0 0
0 0 0 0 0 0 0 0 0 0 0 0 0 -13 -10 -1 0 -9 0 0 0 0 0 0 0 0 -1 0 0 -9 0 0 0 0 0 0 0 0 0 0 0 0 0 0
0 0 0 0 0 0 0 0 0 0 0 0 -42 -7 0 0 0 0 0 0 0 0 0 0 0 0 0 0 -14 0 0 0 0 0 0 0 0 0 0 0 0 0 0 0
0 0 0 0 0 0 -1 0 0 -1 0 -9 0 -1 0 -3 0 0 0 0 0 0 0 0 0 0 -10 -2 -2 -2 0 0 0 0 0 0 0 0 0 0 0 0 0 0
0 0 0 0 0 0 0 0 0 0 0 0 -1 0 0 -2 0 0 0 0 0 0 0 0 0 0 0 -2 0 -1 0 0 0 0 0 -2 0 0 0 0 0 0 0 0
0 0 0 -5 0 -3 -1 0 0 -1 0 0 0 0 0 0 0 0 0 0 0 0 0 0 0 0 0 -7 0 0 0 0 0 0 0 -4 0 0 0 0 0 0 0 0
0 -3 -1 0 0 0 0 0 0 0 0 0 -2 0 0 0 0 0 0 0 0 0 0 0 0 0 0 -8 0 0 -1 0 0 0 0 -1 0 0 0 0 0 0 0 0
0 -1 0 -1 0 0 -1 0 -9 -1 0 0 0 0 0 0 0 0 0 0 0 0 0 0 0 0 0 0 -1 -1 0 0 0 0 -3 0 0 0 0 0 0 0 0 0
0 0 0 0 -1 0 -1 0 0 -1 -1 0 0 0 0 0 0 0 0 0 0 0 0 0 0 0 0 0 0 0 0 0 0 0 0 0 0 0 0 0 0 0 0 0
Wind_Speed
6 4 7 7 6 3 1 1 2 3 5 7 3 2 8 9 9 8 6 6 8 10 7 3 1 2 3 5 6 6 7 5 3 2 4 4 4 4 4 5 7 8 8 9
4 8 4 4 3 1 1 2 2 2 1 6 2 5 8 10 11 10 11 11 10 11 10 9 10 9 7 9 9 7 6 7 5 4 4 3 5 5 5 5 8 9 12 12
5 6 2 1 6 4 2 2 4 5 4 4 4 7 6 7 10 11 12 12 12 12 12 11 11 11 10 9 7 8 10 11 9 7 4 3 1 4 5 8 9 11 14 13
8 3 2 2 5 7 1 3 8 7 7 4 3 5 6 4 9 9 9 10 10 10 9 9 8 8 9 10 11 11 10 8 8 8 5 6 6 6 6 7 7 11 12 12
4 5 5 6 4 6 5 8 5 4 7 4 3 7 10 2 7 7 9 10 10 9 9 9 9 11 11 10 9 8 7 8 7 6 7 7 7 6 6 8 12 12 11 13
6 2 4 6 3 2 6 3 1 1 2 5 3 6 8 2 4 8 9 9 9 8 7 8 8 8 9 8 7 6 7 7 8 8 8 8 8 10 10 12 12 11 12 11
3 5 3 6 3 4 8 3 3 3 4 2 1 7 9 5 7 7 6 8 8 8 7 6 5 6 6 6 6 5 7 7 8 8 5 6 8 12 13 14 12 16 12 11
3 5 8 9 5 6 6 6 4 3 3 4 4 3 8 7 6 6 7 6 6 7 7 6 3 4 5 5 6 6 6 6 6 5 8 9 11 9 11 13 13 12 11 10
3 4 3 6 5 5 3 5 2 3 2 4 1 4 8 7 6 5 6 3 4 4 4 5 5 6 5 6 4 6 7 8 9 10 9 9 10 13 11 14 13 10 11 7
3 2 2 1 4 8 4 4 2 2 3 4 3 7 7 10 5 2 3 2 2 1 4 7 9 7 6 7 7 8 9 9 8 9 7 8 10 10 10 11 12 11 8 7
4 4 3 3 2 2 4 3 3 1 2 3 4 5 5 2 2 4 8 8 6 6 8 10 11 10 9 7 7 8 8 8 8 7 8 10 9 8 9 9 9 8 8 7
4 2 2 1 2 3 2 1 1 2 3 2 4 7 5 1 2 4 12 7 5 7 11 11 10 9 7 6 8 8 8 9 7 8 9 9 8 9 9 9 9 9 9 7
1 0 2 4 5 4 5 2 2 2 1 9 4 4 4 3 10 10 9 8 6 10 13 12 11 9 7 8 8 7 7 7 8 9 8 8 8 10 9 10 10 10 10 10
2 2 5 5 7 5 6 7 7 9 5 8 13 18 16 12 14 12 6 5 10 14 13 12 10 8 6 6 5 6 6 6 8 8 9 10 10 8 8 7 7 7 9 11
3 4 4 8 11 13 12 14 12 15 15 11 14 15 15 14 13 10 5 12 16 14 11 10 10 9 10 9 8 7 8 8 7 7 9 7 6 6 7 9 10 10 10 11
2 2 4 4 8 10 12 15 15 13 13 14 15 16 6 8 7 6 13 15 14 10 10 10 10 13 10 9 10 8 10 8 6 7 5 6 7 8 8 9 10 11 11 11
2 1 2 5 9 13 7 4 4 3 4 8 10 8 7 7 10 14 16 14 8 9 9 11 12 13 11 12 8 11 11 6 6 7 6 6 7 8 8 10 11 11 11 11
4 3 1 3 5 4 3 5 9 13 13 8 9 3 5 10 16 17 6 7 6 8 13 12 11 13 14 12 11 11 9 7 7 8 7 7 7 8 9 10 10 11 11 11
3 3 2 2 4 15 13 4 2 2 11 4 4 9 14 18 16 6 4 3 10 11 12 14 14 16 16 13 12 11 10 9 9 9 7 8 7 8 9 10 10 11 11 11
5 4 2 3 4 5 3 4 4 4 8 5 10 16 18 18 12 5 14 9 12 13 13 14 16 16 15 11 11 11 11 10 10 8 9 7 7 8 9 10 11 10 11 11
3 2 4 6 6 8 6 5 1 3 4 12 7 6 8 6 4 10 8 11 12 13 14 15 16 15 15 13 12 12 11 9 7 7 8 9 7 7 9 10 10 11 11 10
4 2 4 3 4 7 2 1 2 5 6 2 4 4 7 7 7 9 11 13 14 14 15 17 16 16 16 15 12 12 10 8 7 9 9 8 7 6 7 10 11 12 12 10
5 6 4 8 7 5 7 7 3 1 4 6 1 4 6 6 9 11 12 13 14 15 16 16 16 17 17 16 13 12 11 8 8 10 8 8 7 7 8 10 11 10 9 7
5 6 5 6 11 12 10 5 3 2 2 2 4 2 5 9 10 13 13 15 14 15 16 15 16 17 17 17 12 11 11 9 10 11 8 7 7 7 9 8 7 8 7 7
7 6 11 12 15 11 3 3 4 3 4 5 4 5 7 9 13 15 15 15 14 15 14 14 15 16 18 17 11 8 9 10 10 8 7 6 5 7 8 7 6 6 6 6
9 12 6 5 3 7 1 3 5 5 5 2 5 7 8 12 14 15 15 14 14 15 14 15 17 17 17 14 12 9 6 7 7 7 5 4 5 5 5 6 7 8 3 3
Wind_Direction
39 79 57 46 33 36 52 262 310 55 75 314 1 60 45 45 61 87 77 107 130 136 152 154 90 135 123 121 149 168 110 67 54 3 330 319 304 313 349 5 1 341 348 329
146 77 74 62 56 358 289 289 74 109 44 291 27 87 79 55 59 55 80 93 113 122 108 90 85 85 71 78 70 91 86 63 44 37 17 353 340 12 352 354 336 339 343 332
80 73 112 316 42 348 64 359 18 317 305 213 234 112 106 74 79 86 81 84 76 79 87 76 72 68 75 73 72 76 75 73 59 40 34 6 324 320 342 341 342 344 331 324
76 74 62 82 64 342 229 16 305 273 251 209 260 152 87 96 98 82 76 72 70 71 72 64 62 58 67 70 81 79 73 66 58 24 38 23 2 342 345 333 323 315 314 309
86 74 44 49 25 349 30 318 308 271 234 241 136 260 101 133 95 71 76 71 71 63 59 68 73 79 78 78 71 58 59 48 45 34 18 357 353 343 335 321 322 314 318 317
92 85 28 12 318 311 323 253 184 177 199 227 66 318 121 47 27 88 81 64 49 44 67 82 90 93 89 77 60 46 16 28 24 16 20 5 340 331 335 331 324 327 323 321
133 65 76 358 300 181 347 247 218 208 203 33 137 272 52 101 89 70 61 53 55 60 69 88 93 84 69 58 40 27 19 4 10 18 339 319 334 333 330 333 330 326 320 321
10 143 12 359 12 343 20 358 24 318 327 321 179 222 126 127 100 75 75 80 80 73 70 65 38 5 25 10 6 351 339 339 339 331 336 341 342 336 330 333 326 316 317 317
349 96 100 56 26 309 46 56 24 129 160 252 302 149 176 167 116 70 78 79 74 66 45 17 348 323 307 299 307 324 331 338 336 341 340 338 335 332 328 323 316 315 312 316
59 196 54 114 246 67 25 114 218 35 339 301 306 288 307 187 223 46 25 315 224 300 342 344 335 340 300 290 299 323 331 334 331 333 336 331 324 322 323 320 324 322 316 313
6 296 115 235 343 340 170 155 70 71 303 281 303 312 72 164 290 311 334 318 276 309 323 329 330 327 321 311 308 325 329 328 329 333 331 322 328 329 326 329 329 328 315 317
33 3 264 20 67 326 316 131 88 296 189 220 327 280 88 150 62 294 321 339 292 302 312 325 324 331 323 325 329 338 347 339 340 337 329 328 323 324 330 329 328 323 326 322
65 267 262 183 174 196 249 193 117 80 239 244 245 267 122 200 285 333 325 325 291 325 321 325 335 333 336 336 353 344 336 332 330 324 321 333 326 324 333 328 324 320 325 330
248 238 269 308 335 328 259 265 255 246 246 265 263 280 297 318 331 323 332 314 325 326 329 343 324 317 319 316 307 325 315 317 318 320 331 335 329 333 334 322 310 305 306 308
320 284 293 290 292 290 285 275 266 248 249 264 273 296 314 329 331 330 320 321 325 332 341 332 325 330 306 301 308 316 323 325 321 322 327 341 341 321 309 317 329 333 325 321
24 298 347 288 299 294 292 270 262 258 255 260 273 283 356 333 326 333 329 320 323 332 341 338 308 294 293 311 322 324 320 315 283 320 311 318 322 325 333 327 320 323 325 330
290 176 357 281 316 316 275 253 168 244 201 278 289 338 335 346 332 326 327 332 350 343 326 294 300 300 324 317 307 314 322 301 286 310 282 313 321 326 327 326 327 329 326 324
135 136 69 289 300 271 49 298 286 291 291 283 274 300 325 324 329 327 21 5 355 308 304 308 306 315 314 309 309 314 308 292 291 296 288 312 321 316 323 322 323 322 322 322
258 135 146 262 264 296 291 78 70 270 293 6 359 340 332 327 324 18 76 229 298 293 301 307 307 312 310 297 315 308 300 292 289 285 298 302 303 311 315 314 318 320 322 322
78 98 261 187 256 265 12 50 328 293 261 46 354 339 320 327 315 324 327 313 295 311 311 314 316 311 303 298 299 287 291 293 296 298 277 293 292 298 304 311 316 320 319 318
144 160 231 241 250 272 331 49 255 279 18 339 349 321 322 313 274 310 302 283 302 314 312 321 314 315 310 301 294 283 295 291 291 283 280 279 286 293 300 308 315 320 321 320
243 222 208 205 257 264 84 296 271 329 334 283 263 318 307 312 301 301 308 313 316 315 319 325 322 321 319 311 292 285 293 289 293 292 287 275 281 289 297 309 315 318 317 330
254 208 275 194 242 281 294 294 283 198 220 275 355 304 305 293 311 317 314 315 319 321 324 328 327 320 318 314 291 279 296 308 306 298 285 276 280 288 298 313 321 316 329 334
248 227 243 279 258 268 301 318 240 316 82 137 225 284 269 301 316 317 322 321 322 323 324 328 323 324 323 318 310 298 315 318 304 292 291 283 284 315 308 325 316 322 336 329
254 269 268 274 274 292 271 23 61 162 153 209 247 282 306 319 318 319 315 317 320 316 322 323 322 323 321 321 322 320 326 304 307 307 294 296 295 304 320 321 340 329 352 352
251 261 229 251 298 282 337 19 303 197 222 268 297 308 313 313 313 316 315 318 315 321 317 318 324 326 322 321 318 335 345 335 318 301 299 329 314 325 323 331 324 138 107 7